Regional Weather Roundup
Issued by NWS

Home | Current Version | Previous Version | Text Only | Print | Product List | Glossary Off
Versions: 1 2 3 4 5 6 7 8 9 10 11 12 13 14 15 16 17 18 19 20 21 22 23 24 25 26 27 28 29 30 31 32 33 34 35 36 37 38 39 40 41 42 43 44 45 46 47 48 49 50

000
ASUS43 KMPX 221110
RWRMN
WEATHER ROUNDUP FOR MINNESOTA
NATIONAL WEATHER SERVICE TWIN CITIES/CHANHASSEN MN
500 AM CST SAT NOV 22 2014


NOTE: "FAIR" INDICATES FEW OR NO CLOUDS BELOW 12,000 FEET WITH NO
SIGNIFICANT WEATHER AND/OR OBSTRUCTIONS TO VISIBILITY. N/A MEANS
CURRENT SKY AND/OR WEATHER CONDITIONS ARE NOT AVAILABLE.

MNZ060>063-068>070-221200-
   Twin Cities Metro

CITY           SKY/WX    TMP DP  RH WIND       PRES   REMARKS
TWIN CITIES    CLOUDY    35  32  88 SW7       29.80F FOG     WCI  29
ST PAUL        CLOUDY    36  33  89 S8        29.82F FOG
CRYSTAL        CLOUDY    37  32  82 S10       29.77F HAZE
BLAINE         CLOUDY    37  36  93 S9        29.78S
LAKEVILLE      CLOUDY    34  34 100 SW3       29.81R FOG
EDEN PRAIRIE   CLOUDY    36  33  89 S12G21    29.78F FOG
SOUTH ST PAUL  CLOUDY    37  33  87 SW7       29.81S FOG
LAKE ELMO      CLOUDY    36  34  93 S10       29.81S FOG
$$
MNZ001>005-007-008-013>017-022>024-027-028-221200-
   Northwest Minnesota

CITY           SKY/WX    TMP DP  RH WIND       PRES   REMARKS
BEMIDJI        PTCLDY    26  24  93 CALM      29.63S
HALLOCK        MOCLDY    32  30  93 SE3       29.59S
ROSEAU         CLOUDY    34  28  80 SW3       29.60R
WARROAD        CLOUDY    32  28  86 SW3       29.60S
THIEF RVR FALL CLEAR     23  21  93 S9        29.61F WCI  13
CROOKSTON      CLEAR     21  19  93 S7        29.63F WCI  13
FOSSTON        CLEAR     21  19  93 S9        29.63F WCI  11
DETROIT LAKES  CLEAR     28  27  93 S5        29.66F WCI  23
MOORHEAD       CLEAR     25  25 100 SE6       29.66F WCI  18
PARK RAPIDS    MOCLDY    21  20  96 S5        29.65F WCI  15
MAHNOMEN       FAIR      26  23  89 S10       29.63F WCI  16
$$
MNZ006-009>011-018-025>026-221200-
   North Central Minnesota

CITY           SKY/WX    TMP DP  RH WIND       PRES   REMARKS
BAUDETTE       CLOUDY    32  27  81 SW5       29.59R WCI  27
FLAG ISLAND    CLOUDY    30  27  86 W3        29.58R
INTL FALLS     CLOUDY    30  25  81 SW7       29.60R WCI  23
WASKISH        CLOUDY    34  30  86 CALM      29.61S
BIG FORK       CLOUDY    30  27  86 SW5       29.63S WCI  25
LONGVILLE      MOCLDY    27  25  93 S5        29.67S WCI  21
GRAND RAPIDS   PTCLDY    27  23  86 S6        29.65F WCI  20
CRANE LAKE     CLOUDY    27  25  93 S6        29.63S WCI  20
ORR            CLOUDY    27  23  86 S5        29.60R WCI  21
COOK             N/A     27  25  93 SW7       29.63S WCI  19
WALKER         FAIR      27  24  89 SW5       29.64S WCI  22
$$
MNZ012-019>021-037-221200-
   Northeast Minnesota

CITY           SKY/WX    TMP DP  RH WIND       PRES   REMARKS
DULUTH         PTCLDY    28  24  85 SW17      29.67F FOG     WCI  16
ELY            MOCLDY    27  25  93 SW8G17    29.63S WCI  18
HIBBING        PTCLDY    25  22  88 SW3       29.66S
EVELETH        CLOUDY    27  23  86 CALM      29.67R
DULUTH HARBOR  CLEAR     30  27  86 SW13      29.72S WCI  20
TWO HARBORS    CLEAR     28  23  80 SW5       29.67S WCI  23
SILVER BAY     CLEAR     27  23  86 SW3       29.66S
GRAND MARAIS     N/A     31  26  82 W8        29.66F WCI  23
G MARAIS ARPRT PTCLDY    19  16  86 SW5       29.61R WCI  13
$$
MNZ029>031-032-039>041-046>048-054>057-064-221200-
   West Central Minnesota

CITY           SKY/WX    TMP DP  RH WIND       PRES   REMARKS
FERGUS FALLS   CLEAR     25  23  93 S6        29.72F WCI  18
WHEATON        CLEAR     27  23  86 S6        29.71F WCI  20
MORRIS         CLEAR     27  25  93 S7        29.70F WCI  19
ALEXANDRIA     PTCLDY    29  26  89 SW12      29.71S WCI  19
ELBOW LAKE       N/A     25  24  93 SE7       29.69F WCI  18
WADENA         MOCLDY    23  21  93 S5        29.68S FOG     WCI  17
GLENWOOD       CLEAR     25  25 100 SW6       29.72S FOG     WCI  18
APPLETON       CLEAR     30  27  86 S5        29.72S WCI  25
BENSON         CLEAR     25  23  93 S7        29.72F WCI  17
ORTONVILLE     CLEAR     28  25  86 S3        29.71F
MADISON        CLEAR     30  27  86 S7        29.72F WCI  23
WILLMAR        FAIR      23  21  93 S3        29.74F FOG
$$
MNZ033>034-036-042>043-049>051-058-059-221200-
   Central Minnesota

CITY           SKY/WX    TMP DP  RH WIND       PRES   REMARKS
ST CLOUD       PTCLDY    27  23  85 S5        29.73F WCI  22
SAUK CENTRE    FAIR      24  23  96 SW6       29.72S WCI  17
PAYNESVILLE    CLEAR     25  24  97 S3        29.74S
AITKIN         PTCLDY    28  25  86 S6        29.67F HAZE    WCI  22
PINE RIVER     MOCLDY    21  21 100 CALM      29.71F FOG
BRAINERD       PTCLDY    25  24  96 S8        29.70F FOG     WCI  16
STAPLES        PTCLDY    21  21 100 S6        29.69S FOG     WCI  14
LONG PRAIRIE   FAIR      23  23 100 S3        29.71S FOG
LITTLE FALLS   PTCLDY    27  23  86 CALM      29.72F FOG
LITCHFIELD     CLEAR     30  28  93 SW3       29.75F
BUFFALO        CLEAR     32  29  89 S6        29.77F FOG     WCI  26
MAPLE LAKE     CLEAR     31  30  93 S7        29.75F WCI  25
$$
MNZ037-044-045-052-053-221200-
   East Central Minnesota

CITY           SKY/WX    TMP DP  RH WIND       PRES   REMARKS
PRINCETON      PTCLDY    32  28  86 S6        29.75F WCI  26
MORA             N/A    N/A N/A N/A MISG        N/A
CAMBRIDGE      PTCLDY    36  27  69 S5        29.74F
RUSH CITY      PTCLDY    33  30  90 S6        29.76S WCI  27
MOOSE LAKE     CLEAR     28  27  93 CALM      29.70F
HINCKLEY       FAIR      30  28  93 CALM      29.74F
CLOQUET        CLEAR     27  25  93 SW9       29.69S WCI  17
MCGREGOR       CLEAR     28  27  93 S9        29.70S WCI  20
$$
MNZ071>073-080-081-089-090-097-098-221200-
   Southwest Minnesota

CITY           SKY/WX    TMP DP  RH WIND       PRES   REMARKS
MONTEVIDEO     PTCLDY    28  27  93 SW6       29.74F WCI  22
GRANITE FALLS  PTCLDY    26  24  90 S7        29.76S WCI  19
CANBY          PTCLDY    34  29  83 SW10      29.74S WCI  26
MARSHALL       PTCLDY    34  28  80 SW13      29.75S WCI  25
REDWOOD FALLS  CLEAR     27  25  92 S5        29.77S WCI  22
OLIVIA         CLEAR     30  28  93 S6        29.75F WCI  24
PIPESTONE      PTCLDY    25  23  93 S9        29.77S FOG     WCI  15
WINDOM         FOG       36  34  93 SW15G21   29.78F VSB 3/4
WORTHINGTON    CLOUDY    34  34 100 SW20      29.79F VSB 1/4 WCI  22
JACKSON        FOG       34  32  93 SW17      29.80F VSB 1   WCI  23
TRACY          PTCLDY    33  31  91 SW16      29.76S WCI  23
SLAYTON        FOG       32  32 100 SW21      29.77S VSB 1/2 WCI  20
$$
MNZ065>067-074>077-082>085-091>093-221200-
   South Central Minnesota

CITY           SKY/WX    TMP DP  RH WIND       PRES   REMARKS
MANKATO        CLOUDY    36  32  87 S9        29.82S
NEW ULM        CLEAR     32  32 100 S7        29.79S FOG     WCI  26
ST JAMES       CLOUDY    36  36 100 S15       29.81S FOG
FAIRMONT       CLOUDY    36  32  87 SW9       29.82F VSB 1/2
GLENCOE        CLEAR     32  32  99 S9        29.77F FOG     WCI  24
FARIBAULT      CLOUDY    36  34  93 S10G18    29.83S FOG
OWATONNA       LGT RAIN  36  34  93 S14       29.83F VSB 1
WASECA         FOG       34  32  93 S13       29.84S VSB 1/2 WCI  25
ALBERT LEA     FOG       36  36 100 S9G16     29.83F VSB 1/2
$$
MNZ078>079-086>088-094>096-221200-
   Southeast Minnesota

CITY           SKY/WX    TMP DP  RH WIND       PRES   REMARKS
ROCHESTER      FOG       33  32  96 SW16      29.85F VSB 3/4 WCI  23
RED WING         N/A     36  34  93 S7        29.83F FOG
STANTON        CLOUDY    36  33  89 SW12G18   29.81F FOG
DODGE CENTER   SNOW      34  34 100 SW17      29.83F VSB 1/2 WCI  23
WINONA         CLOUDY    36  32  87 S5        29.89S
AUSTIN         FOG       34  32  93 S14       29.85F VSB 1/4 WCI  24
PRESTON        CLOUDY    32  32  99 S13G20    29.87S FOG     WCI  22
$$
ABBREVIATIONS USED IN REMARKS
   TC - TEMPERATURES IN CELSIUS
  WCI - WIND CHILL INDEX
   HX - HEAT INDEX
  VSB - VISIBILITY
$$



USA.gov is the U.S. government's official web portal to all federal, state and local government web resources and services.